User: anonymous   Login
Location: Alsip
(41.6689°N, 87.7387°W)
Time: 09:42:58
(UTC+00:00)
Language:

Intercosmos 25 Rocket - Orbit

View from above orbital plane
View from above orbital plane
View from above satellite
View from above satellite

Ground track
Ground track

The orbit data is extracted from the following two-line orbital elements,

1 21820U 91086B   20269.89864723 -.00000009 +00000-0 -17137-5 0  9998
2 21820 082.5599 132.4640 1575026 294.6485 049.8705 11.93512071249533
Epoch (UTC): 25 September 2020 21:34:03
Eccentricity: 0.1575026
inclination: 82.5599°
perigee height: 436 km
apogee height: 2984 km
right ascension of ascending node: 132.4640°
argument of perigee: 294.6485°
revolutions per day: 11.93512071
mean anomaly at epoch: 49.8705°
orbit number at epoch: 24953

The dashed part of the orbit path shows where the satellite is in the earth's shadow,  

DLR